Weather History for KOLZ - March, 2013

Change the Weather History Date:

Monday, March 4, 2013

  Actual Average Record
Temperature  
Mean Temperature 28 °F -  
Max Temperature 32 °F 40 °F 66 °F (1983)
Min Temperature 23 °F 22 °F -12 °F (1978)
Degree Days  
Heating Degree Days 38    
Moisture  
Dew Point 23 °F    
Average Humidity 80    
Maximum Humidity 93    
Minimum Humidity 59    
Precipitation  
Precipitation 0.00 in - - ()
Sea Level Pressure  
Sea Level Pressure 29.93 in    
Wind  
Wind Speed 17 mph (ESE)    
Max Wind Speed 25 mph    
Max Gust Speed 36 mph    
Visibility 7 miles    
Events Snow    
Averages and records for this station are not official NWS values.
T = Trace of Precipitation, MM = Missing Value Source: NWS Daily Summary

Daily Weather History Graph

Daily Weather History Graph

Search for Another Location

Airport or City:

Trip Planner

Search our weather history database for the weather conditions in past years. The results will help you decide how hot, cold, wet, or windy it might be!

Date:

Astronomy

Mar. 04, 2013 Rise Set
Actual Time 6:38 AM CST 6:01 PM CST
Civil Twilight 6:09 AM CST 6:29 PM CST
Nautical Twilight 5:37 AM CST 7:02 PM CST
Astronomical Twilight 5:04 AM CST 7:35 PM CST
Moon 12:53 AM CST (3/4) 10:37 AM CST (3/4)
Length of Visible Light 12h 19m
Length of Day
11h 23m
Waning Gibbous, 52% of the Moon is Illuminated
Mar 4
Waning Gibbous
Mar 4
Last Quarter
Mar 11
New
Mar 19
First Quarter
Mar 27
Full

Hourly Weather History & Observations

Time (CST) Temp. Windchill Dew Point Humidity Pressure Visibility Wind Dir Wind Speed Gust Speed Precip Events Conditions
12:15 AM 26.6 °F 14.7 °F 15.8 °F 64% 30.01 in 10.0 mi SE 15.0 mph - N/A   Scattered Clouds
12:35 AM 26.6 °F 15.2 °F 14.0 °F 59% 30.01 in 10.0 mi SE 13.8 mph - N/A   Scattered Clouds
12:55 AM 26.6 °F 15.2 °F 15.8 °F 64% 30.01 in 10.0 mi SE 13.8 mph - N/A   Scattered Clouds
1:15 AM 26.6 °F 14.7 °F 15.8 °F 64% 30.00 in 10.0 mi SE 15.0 mph - N/A   Clear
1:55 AM 26.6 °F 14.7 °F 15.8 °F 64% 29.99 in 10.0 mi ESE 15.0 mph - N/A   Clear
2:15 AM 26.6 °F 14.7 °F 15.8 °F 64% 29.97 in 10.0 mi SE 15.0 mph - N/A   Clear
2:35 AM 26.6 °F 15.2 °F 15.8 °F 64% 29.97 in 10.0 mi ESE 13.8 mph - N/A   Clear
2:55 AM 26.6 °F 14.3 °F 15.8 °F 64% 29.96 in 10.0 mi ESE 16.1 mph - N/A   Clear
3:15 AM 26.6 °F 13.8 °F 15.8 °F 64% 29.95 in 10.0 mi ESE 17.3 mph - N/A   Clear
3:35 AM 26.6 °F 14.3 °F 17.6 °F 69% 29.94 in 7.0 mi ESE 16.1 mph - N/A Snow Light Snow
3:55 AM 24.8 °F 11.1 °F 19.4 °F 80% 29.94 in 3.0 mi ESE 18.4 mph - N/A Snow Light Snow
4:15 AM 24.8 °F 10.7 °F 19.4 °F 80% 29.94 in 4.0 mi ESE 19.6 mph - N/A Snow Light Snow
4:35 AM 23.0 °F 9.2 °F 19.4 °F 86% 29.94 in 2.5 mi ESE 17.3 mph - N/A Snow Light Snow
4:55 AM 23.0 °F 8.7 °F 21.2 °F 93% 29.94 in 2.5 mi ESE 18.4 mph - N/A Snow Light Snow
5:15 AM 23.0 °F 8.3 °F 21.2 °F 93% 29.94 in 2.5 mi ESE 19.6 mph - N/A Snow Light Snow
5:35 AM 23.0 °F 8.7 °F 21.2 °F 93% 29.93 in 2.5 mi ESE 18.4 mph - N/A Snow Light Snow
5:55 AM 23.0 °F 8.3 °F 21.2 °F 93% 29.92 in 1.5 mi East 19.6 mph 24.2 mph N/A Snow Light Snow
6:15 AM 23.0 °F 9.2 °F 21.2 °F 93% 29.93 in 1.5 mi East 17.3 mph - N/A Snow Light Snow
6:35 AM 23.0 °F 9.2 °F 21.2 °F 93% 29.93 in 0.8 mi East 17.3 mph 25.3 mph N/A Snow Light Snow
6:55 AM 23.0 °F 8.7 °F 21.2 °F 93% 29.92 in 2.0 mi East 18.4 mph - N/A Snow Light Snow
7:15 AM 24.8 °F 10.3 °F 21.2 °F 86% 29.92 in 3.0 mi East 20.7 mph 26.5 mph N/A Snow Light Snow
7:35 AM 24.8 °F 10.0 °F 21.2 °F 86% 29.92 in 4.0 mi ESE 21.9 mph 25.3 mph N/A Snow Light Snow
7:55 AM 24.8 °F 10.7 °F 21.2 °F 86% 29.93 in 5.0 mi ESE 19.6 mph 28.8 mph N/A Snow Light Snow
8:15 AM 26.6 °F 12.0 °F 21.2 °F 80% 29.93 in 2.5 mi ESE 23.0 mph 28.8 mph N/A Snow Light Snow
8:35 AM 26.6 °F 12.4 °F 21.2 °F 80% 29.93 in 2.5 mi ESE 21.9 mph 28.8 mph N/A Snow Light Snow
8:55 AM 26.6 °F 12.7 °F 21.2 °F 80% 29.92 in 1.0 mi ESE 20.7 mph 28.8 mph N/A Snow Light Snow
9:15 AM 26.6 °F 11.7 °F 23.0 °F 86% 29.92 in 1.8 mi ESE 24.2 mph 28.8 mph N/A Snow Light Snow
9:35 AM 26.6 °F 12.7 °F 23.0 °F 86% 29.92 in 5.0 mi ESE 20.7 mph 28.8 mph N/A Snow Light Snow
9:55 AM 26.6 °F 11.4 °F 23.0 °F 86% 29.91 in 3.0 mi ESE 25.3 mph 33.4 mph N/A   Mist
10:15 AM 28.4 °F 14.4 °F 23.0 °F 80% 29.91 in 3.0 mi ESE 23.0 mph 28.8 mph N/A   Haze
10:35 AM 28.4 °F 13.8 °F 23.0 °F 80% 29.90 in 3.0 mi ESE 25.3 mph 33.4 mph N/A   Haze
10:55 AM 28.4 °F 14.7 °F 23.0 °F 80% 29.91 in 4.0 mi ESE 21.9 mph 35.7 mph N/A   Clear
11:15 AM 28.4 °F 15.1 °F 23.0 °F 80% 29.92 in 7.0 mi ESE 20.7 mph 27.6 mph N/A   Clear
11:35 AM 28.4 °F 15.1 °F 23.0 °F 80% 29.91 in 7.0 mi East 20.7 mph 26.5 mph N/A   Clear
11:55 AM 30.2 °F 16.2 °F 24.8 °F 80% 29.90 in 5.0 mi East 25.3 mph 31.1 mph N/A   Haze
12:15 PM 30.2 °F 16.5 °F 24.8 °F 80% 29.89 in 5.0 mi East 24.2 mph 28.8 mph N/A   Haze
12:55 PM 30.2 °F 17.8 °F 24.8 °F 80% 29.89 in 7.0 mi ESE 19.6 mph - N/A   Clear
1:15 PM 30.2 °F 17.4 °F 24.8 °F 80% 29.88 in 7.0 mi ESE 20.7 mph 29.9 mph N/A   Clear
1:35 PM 32.0 °F 19.5 °F 24.8 °F 75% 29.87 in 10.0 mi ESE 21.9 mph 27.6 mph N/A   Clear
1:55 PM 32.0 °F 20.1 °F 26.6 °F 80% 29.87 in 7.0 mi ESE 19.6 mph 29.9 mph N/A   Clear
2:15 PM 32.0 °F 18.6 °F 26.6 °F 80% 29.87 in 7.0 mi ESE 25.3 mph - N/A   Clear
2:35 PM 32.0 °F 19.2 °F 26.6 °F 80% 29.87 in 5.0 mi ESE 23.0 mph 34.5 mph N/A   Haze
2:55 PM 32.0 °F 19.2 °F 24.8 °F 75% 29.88 in 5.0 mi ESE 23.0 mph 32.2 mph N/A   Haze
3:15 PM 32.0 °F 19.2 °F 24.8 °F 75% 29.88 in 10.0 mi ESE 23.0 mph - N/A   Clear
3:35 PM 32.0 °F 19.5 °F 26.6 °F 80% 29.88 in 7.0 mi ESE 21.9 mph 31.1 mph N/A   Clear
3:55 PM 32.0 °F 20.8 °F 24.8 °F 75% 29.89 in 7.0 mi ESE 17.3 mph - N/A   Clear
4:15 PM 30.2 °F 17.8 °F 23.0 °F 75% 29.89 in 10.0 mi ESE 19.6 mph 25.3 mph N/A   Clear
4:35 PM 30.2 °F 20.2 °F 24.8 °F 80% 29.90 in 10.0 mi ESE 12.7 mph - N/A   Clear
4:55 PM 30.2 °F 18.5 °F 23.0 °F 75% 29.90 in 10.0 mi ESE 17.3 mph 23.0 mph N/A   Clear
5:15 PM 30.2 °F 19.8 °F 23.0 °F 75% 29.90 in 10.0 mi ESE 13.8 mph 20.7 mph N/A   Clear
5:35 PM 30.2 °F 20.8 °F 23.0 °F 75% 29.91 in 10.0 mi East 11.5 mph - N/A   Clear
5:55 PM 30.2 °F 21.9 °F 24.8 °F 80% 29.92 in 10.0 mi East 9.2 mph - N/A   Clear
6:15 PM 30.2 °F 22.6 °F 24.8 °F 80% 29.92 in 10.0 mi East 8.1 mph - N/A   Clear
6:35 PM 30.2 °F 21.9 °F 24.8 °F 80% 29.93 in 10.0 mi East 9.2 mph - N/A   Clear
6:55 PM 30.2 °F 21.3 °F 23.0 °F 75% 29.94 in 10.0 mi East 10.4 mph - N/A   Clear
7:15 PM 30.2 °F 20.8 °F 24.8 °F 80% 29.94 in 10.0 mi East 11.5 mph - N/A   Clear
7:35 PM 30.2 °F 21.3 °F 24.8 °F 80% 29.95 in 10.0 mi East 10.4 mph - N/A   Clear
7:55 PM 30.2 °F 20.8 °F 24.8 °F 80% 29.95 in 10.0 mi East 11.5 mph - N/A   Clear
8:35 PM 30.2 °F 20.2 °F 26.6 °F 86% 29.94 in 10.0 mi East 12.7 mph - N/A   Scattered Clouds
8:55 PM 30.2 °F 21.3 °F 26.6 °F 86% 29.96 in 10.0 mi ESE 10.4 mph - N/A   Scattered Clouds
9:15 PM 30.2 °F 21.9 °F 26.6 °F 86% 29.97 in 10.0 mi ESE 9.2 mph - N/A   Clear
9:35 PM 30.2 °F - 26.6 °F 86% 29.97 in 10.0 mi Calm Calm - N/A   Clear
9:55 PM 30.2 °F - 26.6 °F 86% 29.99 in 10.0 mi Calm Calm - N/A   Clear
10:15 PM 30.2 °F 24.3 °F 26.6 °F 86% 29.98 in 5.0 mi East 5.8 mph - N/A Snow Light Snow
10:55 PM 30.2 °F 24.3 °F 26.6 °F 86% 29.97 in 5.0 mi East 5.8 mph - N/A Snow Light Snow
11:15 PM 30.2 °F 24.3 °F 26.6 °F 86% 29.97 in 4.0 mi ENE 5.8 mph - N/A Snow Light Snow
11:35 PM 28.4 °F 21.2 °F 26.6 °F 93% 29.96 in 1.8 mi East 6.9 mph - N/A Snow Light Snow
11:55 PM 28.4 °F 19.7 °F 26.6 °F 93% 29.96 in 7.0 mi East 9.2 mph - N/A Snow Light Snow